Location: Livorno
(43.5500°N, 10.3170°E)
Time: 20:13:55
(UTC+02:00)

ISS - Pass Details

Date: 19 May 2026
Orbit: 415 x 423 km, 51.6° (Epoch: 10 June)

Event Time Altitude Azimuth Distance (km) Brightness Sun altitude
Rises 21:38:44 0° 300° (WNW) 2,357 2.2 -9.5°
Reaches altitude 10° 21:41:07 10° 316° (NW) 1,493 0.7 -9.8°
Maximum altitude 21:43:52 23° 11° (N) 944 -1.6 -10.2°
Drops below altitude 10° 21:46:36 10° 66° (ENE) 1,491 -1.2 -10.6°
Enters shadow 21:47:54 - 76° (ENE) 1,949 -0.7 -10.7°
